This demonstration page uses our WeatherBlox Daily Observations layout. Learn more.

Left ArrowRight Arrow

44.8408, -93.29828

Hourly Observations for September 25, 2022

Temp ( °F °C ) Dew Point ( °F °C ) Humidity (%) Winds ( mph kmh ) Pressure ( in mb ) Visibility ( mi km ) Precip ( " mm )
12:53 am 00:53 Partly Cloudy 56 13.3 51 10.6 84 84 WNW 7 11 29.83 1010 10 16 0.00 0.00
1:53 am 01:53 Cloudy 58 14.4 51 10.6 78 78 WNW 12 19 29.83 1010 10 16 0.00 0.00
2:53 am 02:53 Cloudy with Light Rain 58 14.4 50 10 75 75 NW 13 20 29.83 1010 10 16 0.01 0.13
3:53 am 03:53 Partly Cloudy 57 13.9 50 10 77 77 NW 9 15 29.83 1010 10 16 0.01 0.13
4:53 am 04:53 Mostly Cloudy 56 13.3 50 10 80 80 NW 9 15 29.85 1011 10 16 0.00 0.00
5:18 am 05:18 Partly Cloudy 55 12.8 49 9.4 80 80 WNW 8 13 29.86 1011 10 16 0.00 0.00
5:53 am 05:53 Mostly Clear 54 12.2 49 9.4 83 83 WNW 8 13 29.87 1011 10 16 0.00 0.00
6:53 am 06:53 Clear 53 11.7 49 9.4 86 86 WNW 7 11 29.87 1012 10 16 0.00 0.00
7:53 am 07:53 Mostly Sunny 54 12.2 49 9.4 83 83 W 5 7 29.88 1012 10 16 0.00 0.00
8:53 am 08:53 Mostly Sunny 58 14.4 50 10 75 75 NW 10 17 29.88 1012 10 16 0.00 0.00
9:53 am 09:53 Mostly Sunny 62 16.7 50 10 65 65 WNW 13 20 29.88 1012 10 16 0.00 0.00
10:53 am 10:53 Mostly Sunny 64 17.8 49 9.4 58 58 WNW 16 26 29.88 1012 10 16 0.00 0.00
11:53 am 11:53 Mostly Sunny 67 19.4 46 7.8 47 47 NW 14 22 29.87 1012 10 16 0.00 0.00
12:53 pm 12:53 Mostly Sunny 70 21.1 42 5.6 36 36 NNW 21 33 29.88 1012 10 16 0.00 0.00
1:53 pm 13:53 Mostly Cloudy 70 21.1 41 5 35 35 NW 21 33 29.88 1012 10 16 0.00 0.00
2:53 pm 14:53 Mostly Cloudy 70 21.1 40 4.4 33 33 NW 25 41 29.88 1012 10 16 0.00 0.00
3:53 pm 15:53 Mostly Cloudy 68 20 36 2.2 31 31 NW 25 41 29.89 1012 10 16 0.00 0.00
4:53 pm 16:53 Mostly Cloudy 66 18.9 37 2.8 34 34 NW 26 43 29.91 1013 10 16 0.00 0.00
5:53 pm 17:53 Mostly Sunny 66 18.9 36 2.2 33 33 NW 25 41 29.91 1013 10 16 0.00 0.00
6:53 pm 18:53 Mostly Sunny 63 17.2 37 2.8 38 38 NW 15 24 29.92 1013 10 16 0.00 0.00
7:53 pm 19:53 Mostly Clear 62 16.7 39 3.9 42 42 NW 14 22 29.93 1014 10 16 0.00 0.00
8:53 pm 20:53 Mostly Clear 61 16.1 38 3.3 42 42 NW 20 31 29.95 1014 10 16 0.00 0.00
9:53 pm 21:53 Mostly Clear 59 15 37 2.8 44 44 NW 15 24 29.95 1014 10 16 0.00 0.00
10:53 pm 22:53 Clear 57 13.9 34 1.1 42 42 NNW 13 20 29.96 1015 10 16 0.00 0.00
11:53 pm 23:53 Clear 56 13.3 35 1.7 45 45 NW 13 20 29.96 1015 10 16 0.00 0.00

Powered by AerisWeather